{"data":{"norad_id":63584,"intl_designator":"2025-076R","name":"STARLINK-33820","alt_names":[],"object_type":"PAYLOAD","status":"ACTIVE","operator":null,"country":"US","launch_date":"2025-04-14","launch_site_code":"AFETR","launch_vehicle":null,"mission":null,"orbit_class":"UNKNOWN","rcs_meters":null,"size_class":null,"mass_kg":null,"dimensions":null,"purposes":["comms"],"wikipedia_slug":null,"has_3d_model":false,"image_url":null,"decayed_at":null,"tle_current":{"epoch":"2026-05-24T23:35:40.221024Z","epoch_age_seconds":80058,"freshness":"FRESH","line1":"1 63584U 25076R   26144.98310441  .00014619  00000+0  53943-3 0  9990","line2":"2 63584  43.0012 250.3764 0001263 295.7240  64.3481 15.27596983 63501","mean_motion":15.27596983,"eccentricity":0.0001263,"inclination_deg":43.0012,"raan_deg":250.3764,"arg_perigee_deg":295.724,"mean_anomaly_deg":64.3481,"bstar":0.00053943,"rev_number":6350,"period_min":94.265700706742,"perigee_km":482.13168191795,"apogee_km":483.86480468041,"semimajor_km":6861.1352432992,"source":"CELESTRAK","updated_at":"2026-05-25T13:38:20.048717Z"}}}